Waarnemingen

Advertentie
Mijn weer
Umeå Flygplats, Zweden (2286): temperatuur & dauwpunt: 13.11.2017 20:00:00 - 19.11.2017 20:00:00 (CET)Umeå Flygplats, Zweden (2286): windsnelheid: 13.11.2017 20:00:00 - 19.11.2017 20:00:00 (CET)Umeå Flygplats, Zweden (2286): windrichting: 13.11.2017 20:00:00 - 19.11.2017 20:00:00 (CET)Umeå Flygplats, Zweden (2286): luchtdruk: 13.11.2017 20:00:00 - 19.11.2017 20:00:00 (CET)Umeå Flygplats, Zweden (2286): zicht: 13.11.2017 20:00:00 - 19.11.2017 20:00:00 (CET)
Datum & Tijd tt [°C] td [°C] ff [km/u] ff [kn] dd ppp [hPa] vv [km]
19.11.2017 20:00:00 -3,3 -5,0 24 13 N 1004,1 9
19.11.2017 19:00:00 -3,0 -4,9 24 13 N 1003,7 10
19.11.2017 18:00:00 -2,8 -4,7 22 12 N 1003,4 10
19.11.2017 17:00:00 -2,7 -4,6 21 11 N 1003,1 10
19.11.2017 16:00:00 -2,6 -4,5 22 12 N 1002,8 8
19.11.2017 15:00:00 -2,5 -4,7 22 12 N 1002,6 10
19.11.2017 14:00:00 -2,4 -4,6 24 13 N 1001,9 10
19.11.2017 13:00:00 -2,2 -4,4 21 11 N 1001,4 10
19.11.2017 12:00:00 -2,3 -4,0 24 13 N 1001,1 10
19.11.2017 11:00:00 -2,2 -3,8 24 13 N 1000,5 10
19.11.2017 10:00:00 -2,4 -3,7 22 12 N 1000,1 9
19.11.2017 09:00:00 -2,9 -3,7 22 12 N 999,4 3,0
19.11.2017 08:00:00 -3,5 -4,0 18 10 N 998,9 2,5
19.11.2017 07:00:00 -4,0 -4,5 22 12 N 998,4 2,0
19.11.2017 06:00:00 -4,1 -5,5 22 12 N 998,2 10
19.11.2017 05:00:00 -4,2 -5,6 26 14 N 997,9 10
19.11.2017 04:00:00 -4,1 -5,5 24 13 N 997,7 10
19.11.2017 03:00:00 -4,2 -5,4 24 13 N 997,3 7
19.11.2017 02:00:00 -4,5 -5,3 24 13 N 997,6 7
19.11.2017 01:00:00 -4,3 -6,0 22 12 N 997,7 10
19.11.2017 00:00:00 -4,6 -6,1 21 11 N 997,7 10
18.11.2017 23:00:00 -4,9 -6,4 18 10 N 997,7 10
18.11.2017 22:00:00 -5,0 -6,5 21 11 NNW 997,6 10
18.11.2017 21:00:00 -5,4 -6,6 18 10 N 997,9 10
18.11.2017 20:00:00 -5,5 -7,0 16 9 N 998,0 10
18.11.2017 19:00:00 -5,4 -6,6 22 12 N 997,9 10
18.11.2017 18:00:00 -5,8 -6,9 18 10 N 997,5 10
18.11.2017 17:00:00 -5,9 -7,1 13 7 N 997,7 10
18.11.2017 16:00:00 -5,5 -6,9 11 6 N 997,7 10
18.11.2017 15:00:00 -5,0 -6,7 9 5 NNO 997,2 10
18.11.2017 14:00:00 -4,9 -6,4 8 4 N 996,8 10
18.11.2017 13:00:00 -4,6 -6,0 5 3 N 996,9 10
18.11.2017 12:00:00 -4,2 -5,7 8 4 N 996,7 10
18.11.2017 11:00:00 -4,5 -5,3 9 5 NNW 996,3 10
18.11.2017 10:00:00 -5,5 -6,0 5 3 NW 996,5 10
18.11.2017 09:00:00 -6,3 -6,6 4 2 NNW 996,1 10
18.11.2017 08:00:00 -6,5 -6,8 0 0 N 995,3 10
18.11.2017 07:00:00 -6,5 -6,8 0 0 N 995,2 10
18.11.2017 06:00:00 -7,5 -7,9 4 2 OZO 995,2 10
18.11.2017 05:00:00 -6,3 -6,6 5 3 ZZW 995,1 10
18.11.2017 04:00:00 -5,0 -5,4 4 2 - 994,7 10
18.11.2017 03:00:00 -3,5 -4,5 5 3 W 994,4 10
18.11.2017 02:00:00 -2,7 -3,8 11 6 WZW 994,5 10
18.11.2017 01:00:00 -1,9 -3,3 9 5 WZW 994,4 10
18.11.2017 00:00:00 -1,8 -2,9 13 7 WZW 994,4 10
17.11.2017 23:00:00 -1,5 -2,6 2 1 ZO 994,3 10
17.11.2017 22:00:00 -1,3 -2,7 8 4 ZW 994,3 10
17.11.2017 21:00:00 -1,1 -2,8 0 0 N 994,1 10
17.11.2017 20:00:00 -1,0 -2,3 5 3 WZW 993,9 10
17.11.2017 19:00:00 -0,7 -1,5 5 3 ZZW 993,7 10
17.11.2017 18:00:00 0,0 -1,4 9 5 WZW 993,7 10
17.11.2017 17:00:00 0,4 -1,0 11 6 WZW 993,5 10
17.11.2017 16:00:00 1,1 -0,5 16 9 W 993,2 10
17.11.2017 15:00:00 0,7 0,0 9 5 WNW 992,7 10
17.11.2017 14:00:00 1,2 0,2 13 7 W 992,4 10
17.11.2017 13:00:00 0,8 -0,5 24 13 W 992,3 10
17.11.2017 12:00:00 1,2 -0,4 21 11 W 991,9 10
17.11.2017 11:00:00 1,4 0,7 18 10 WNW 991,2 10
17.11.2017 10:00:00 1,4 0,8 15 8 WNW 991,1 9
17.11.2017 09:00:00 1,6 1,2 13 7 NW 991,2 10
17.11.2017 08:00:00 2,5 2,2 9 5 W 991,3 10
17.11.2017 07:00:00 3,0 2,7 4 2 ZZW 991,9 10
17.11.2017 06:00:00 3,8 3,7 11 6 Z 992,8 10
17.11.2017 05:00:00 3,9 3,8 13 7 Z 994,2 7
17.11.2017 04:00:00 4,1 3,7 18 10 Z 995,6 7
17.11.2017 03:00:00 4,1 3,7 18 10 Z 997,1 9
17.11.2017 02:00:00 3,8 3,4 21 11 Z 998,5 8
17.11.2017 01:00:00 3,8 3,4 21 11 Z 999,7 10
17.11.2017 00:00:00 2,8 2,4 11 6 Z 1000,9 10
16.11.2017 23:00:00 3,3 2,9 16 9 Z 1002,2 10
16.11.2017 22:00:00 2,5 1,3 22 12 Z 1003,2 10
16.11.2017 21:00:00 -1,2 -1,3 0 0 N 1004,9 10
16.11.2017 20:00:00 -2,7 -2,8 0 0 N 1005,4 10
16.11.2017 19:00:00 -2,9 -3,0 5 3 O 1007,0 10
16.11.2017 18:00:00 -4,7 -4,8 4 2 O 1008,1 10
16.11.2017 17:00:00 -3,8 -3,9 4 2 OZO 1009,0 10
16.11.2017 16:00:00 -5,7 -6,0 5 3 Z 1009,8 10
16.11.2017 15:00:00 -5,1 -5,5 8 4 ZO 1010,2 10
16.11.2017 14:00:00 -2,3 -2,9 0 0 N 1010,5 10
16.11.2017 13:00:00 0,4 -1,2 5 3 - 1010,6 10
16.11.2017 12:00:00 -0,3 -1,9 9 5 NW 1010,3 10
16.11.2017 11:00:00 -2,2 -2,8 5 3 ZO 1010,7 10
16.11.2017 10:00:00 -4,1 -4,9 4 2 - 1010,6 10
16.11.2017 09:00:00 -6,1 -6,6 4 2 ZW 1010,1 10
16.11.2017 08:00:00 -6,5 -7,7 5 3 WNW 1009,7 10
16.11.2017 07:00:00 -3,2 -4,5 11 6 W 1009,1 10
16.11.2017 06:00:00 -5,3 -6,3 5 3 W 1008,3 10
16.11.2017 05:00:00 -3,1 -4,7 9 5 WNW 1007,8 10
16.11.2017 04:00:00 -2,4 -3,4 11 6 NW 1006,8 10
16.11.2017 03:00:00 -4,3 -4,6 9 5 WNW 1005,9 10
16.11.2017 02:00:00 -5,9 -6,3 0 0 N 1004,9 10
16.11.2017 01:00:00 -7,0 -7,3 4 2 OZO 1004,4 10
16.11.2017 00:00:00 -8,4 -9,1 5 3 ZO 1004,0 10
15.11.2017 23:00:00 -9,2 -9,9 2 1 - 1003,8 10
15.11.2017 22:00:00 -8,2 -8,6 5 3 - 1003,6 10
15.11.2017 21:00:00 -7,1 -7,5 4 2 - 1003,4 10
15.11.2017 20:00:00 -6,5 -7,0 0 0 N 1003,2 10
15.11.2017 19:00:00 -6,5 -7,0 4 2 - 1003,2 10
15.11.2017 18:00:00 -4,7 -5,1 4 2 WZW 1003,2 10
15.11.2017 17:00:00 -4,0 -5,0 2 1 - 1003,2 10
15.11.2017 16:00:00 -4,2 -4,7 4 2 ZW 1003,1 10
15.11.2017 15:00:00 -4,3 -5,3 2 1 ZZW 1003,1 10
15.11.2017 14:00:00 -4,7 -5,7 4 2 - 1003,2 10
15.11.2017 13:00:00 -5,2 -6,4 5 3 ZZW 1003,3 10
15.11.2017 12:00:00 -6,2 -7,1 0 0 N 1003,0 10
15.11.2017 11:00:00 -6,9 -7,6 0 0 N 1003,6 10
15.11.2017 10:00:00 -8,0 -8,7 0 0 N 1003,7 10
15.11.2017 09:00:00 -11,2 -12,2 0 0 N 1003,6 10
15.11.2017 08:00:00 -11,9 -12,9 2 1 NW 1003,4 10
15.11.2017 07:00:00 -11,2 -12,2 2 1 WNW 1003,4 10
15.11.2017 06:00:00 -11,8 -12,8 2 1 NNW 1003,5 10
15.11.2017 05:00:00 -11,4 -12,3 4 2 WNW 1003,6 10
15.11.2017 04:00:00 -11,9 -12,9 0 0 N 1003,8 10
15.11.2017 03:00:00 -11,1 -12,0 0 0 N 1003,8 10
15.11.2017 02:00:00 -11,3 -12,2 0 0 N 1003,9 10
15.11.2017 01:00:00 -10,4 -11,3 0 0 N 1004,0 10
15.11.2017 00:00:00 -10,5 -11,4 0 0 N 1004,1 10
14.11.2017 23:00:00 -9,3 -9,8 0 0 N 1004,0 10
14.11.2017 22:00:00 -9,5 -10,2 0 0 N 1004,1 10
14.11.2017 21:00:00 -9,1 -9,8 0 0 N 1003,8 10
14.11.2017 20:00:00 -7,9 -8,4 4 2 ZZW 1003,7 10
14.11.2017 19:00:00 -6,8 -7,1 0 0 N 1003,4 10
14.11.2017 18:00:00 -6,7 -7,0 0 0 N 1003,5 10
14.11.2017 17:00:00 -6,4 -6,9 0 0 N 1003,5 10
14.11.2017 16:00:00 -5,3 -5,8 4 2 - 1003,4 10
14.11.2017 15:00:00 -3,4 -4,4 5 3 WNW 1003,1 10
14.11.2017 14:00:00 -1,9 -3,6 8 4 WNW 1003,1 10
14.11.2017 13:00:00 -1,4 -3,5 9 5 NW 1002,8 10
14.11.2017 12:00:00 -0,6 -2,7 13 7 NW 1002,7 10
14.11.2017 11:00:00 -1,2 -3,1 9 5 W 1003,0 10
14.11.2017 10:00:00 -1,9 -3,5 8 4 NW 1002,8 10
14.11.2017 09:00:00 -3,1 -4,4 11 6 WNW 1002,7 10
14.11.2017 08:00:00 -5,4 -5,8 8 4 W 1002,8 10
14.11.2017 07:00:00 -5,5 -5,6 0 0 N 1002,8 10
14.11.2017 06:00:00 -7,0 -7,7 0 0 N 1002,8 10
14.11.2017 05:00:00 -3,0 -3,5 9 5 WNW 1002,9 10
14.11.2017 04:00:00 -6,5 -6,9 5 3 NNW 1002,9 10
14.11.2017 03:00:00 -5,8 -6,1 0 0 N 1003,3 10
14.11.2017 02:00:00 -5,8 -6,1 4 2 OZO 1003,4 10
14.11.2017 01:00:00 -6,2 -6,5 0 0 N 1003,4 10
14.11.2017 00:00:00 -5,3 -5,6 4 2 ZW 1003,5 10
13.11.2017 23:00:00 -4,4 -4,5 0 0 N 1003,5 10
13.11.2017 22:00:00 -2,6 -3,1 2 1 - 1003,5 10
13.11.2017 21:00:00 -2,7 -3,1 0 0 N 1003,7 10
13.11.2017 20:00:00 -2,7 -3,4 0 0 N 1003,7 10

tt = temperatuur
td = dauwpunt
ff = windsnelheid
dd = windrichting
ppp = luchtdruk
vv = zicht

Weerstations in de omgeving